Time,TemperatureF,DewpointF,PressureIn,WindDirection,WindDirectionDegrees,WindSpeedMPH,WindSpeedGustMPH,Humidity,HourlyPrecipIn,Conditions,Clouds,dailyrainin,SoftwareType,DateUTC
2013-02-02 00:00:00,49.8,40.4,30.20,South,186,12.0,12.0,70,0.00,,,0.00,Wunderground v.1.15,2013-02-02 06:00:00,
2013-02-02 00:06:00,49.7,40.7,30.20,SSE,148,11.0,13.0,71,0.00,,,0.00,Wunderground v.1.15,2013-02-02 06:06:00,
2013-02-02 00:12:00,49.8,41.1,30.20,SSE,148,12.0,16.0,72,0.00,,,0.00,Wunderground v.1.15,2013-02-02 06:12:00,
2013-02-02 00:18:00,49.8,41.5,30.20,SSE,165,12.0,16.0,73,0.00,,,0.00,Wunderground v.1.15,2013-02-02 06:18:00,
2013-02-02 00:24:00,49.8,41.8,30.20,South,169,12.0,12.0,74,0.00,,,0.00,Wunderground v.1.15,2013-02-02 06:24:00,
2013-02-02 00:30:00,49.7,41.7,30.20,South,190,10.0,10.0,74,0.00,,,0.00,Wunderground v.1.15,2013-02-02 06:30:00,
2013-02-02 00:36:00,49.7,42.1,30.20,SE,136,11.0,16.0,75,0.00,,,0.00,Wunderground v.1.15,2013-02-02 06:36:00,
2013-02-02 00:42:00,49.7,42.4,30.19,SSE,155,11.0,11.0,76,0.00,,,0.00,Wunderground v.1.15,2013-02-02 06:42:00,
2013-02-02 00:48:00,49.9,43.0,30.19,SSW,193,12.0,13.0,77,0.00,,,0.00,Wunderground v.1.15,2013-02-02 06:48:00,
2013-02-02 00:54:00,50.1,43.2,30.19,SSE,148,14.0,15.0,77,0.00,,,0.00,Wunderground v.1.15,2013-02-02 06:54:00,
2013-02-02 01:00:00,50.0,43.1,30.19,South,177,14.0,14.0,77,0.00,,,0.00,Wunderground v.1.15,2013-02-02 07:00:00,
2013-02-02 01:06:00,49.9,43.3,30.19,ESE,119,14.0,16.0,78,0.00,,,0.00,Wunderground v.1.15,2013-02-02 07:06:00,
2013-02-02 01:12:00,49.8,43.2,30.19,SSE,155,13.0,16.0,78,0.00,,,0.00,Wunderground v.1.15,2013-02-02 07:12:00,
2013-02-02 01:18:00,49.6,43.0,30.19,SSE,166,12.0,20.0,78,0.00,,,0.00,Wunderground v.1.15,2013-02-02 07:18:00,
2013-02-02 01:24:00,49.4,43.2,30.19,South,169,12.0,13.0,79,0.00,,,0.00,Wunderground v.1.15,2013-02-02 07:24:00,
2013-02-02 01:30:00,49.2,43.0,30.19,SSE,159,12.0,12.0,79,0.00,,,0.00,Wunderground v.1.15,2013-02-02 07:30:00,
2013-02-02 01:36:00,49.1,43.2,30.19,SSW,198,11.0,14.0,80,0.00,,,0.00,Wunderground v.1.15,2013-02-02 07:36:00,
2013-02-02 01:42:00,49.0,43.1,30.19,SSE,167,12.0,17.0,80,0.00,,,0.00,Wunderground v.1.15,2013-02-02 07:42:00,
2013-02-02 01:48:00,48.8,43.2,30.19,South,172,11.0,17.0,81,0.00,,,0.00,Wunderground v.1.15,2013-02-02 07:48:00,
2013-02-02 01:54:00,48.5,43.3,30.19,SSE,153,10.0,11.0,82,0.00,,,0.00,Wunderground v.1.15,2013-02-02 07:54:00,
2013-02-02 02:00:00,48.4,43.2,30.19,SSE,167,10.0,10.0,82,0.00,,,0.00,Wunderground v.1.15,2013-02-02 08:00:00,
2013-02-02 02:06:00,48.5,43.6,30.19,SE,142,10.0,10.0,83,0.00,,,0.00,Wunderground v.1.15,2013-02-02 08:06:00,
2013-02-02 02:12:00,48.6,43.7,30.19,SE,132,10.0,12.0,83,0.00,,,0.00,Wunderground v.1.15,2013-02-02 08:12:00,
2013-02-02 02:18:00,48.7,43.8,30.18,South,187,11.0,12.0,83,0.00,,,0.00,Wunderground v.1.15,2013-02-02 08:18:00,
2013-02-02 02:24:00,48.7,43.8,30.18,SSE,150,11.0,13.0,83,0.00,,,0.00,Wunderground v.1.15,2013-02-02 08:24:00,
2013-02-02 02:30:00,48.7,43.8,30.18,SSE,166,11.0,11.0,83,0.00,,,0.00,Wunderground v.1.15,2013-02-02 08:30:00,
2013-02-02 02:36:00,48.5,43.6,30.18,South,188,11.0,14.0,83,0.00,,,0.00,Wunderground v.1.15,2013-02-02 08:36:00,
2013-02-02 02:42:00,48.5,43.9,30.18,SSE,168,11.0,14.0,84,0.00,,,0.00,Wunderground v.1.15,2013-02-02 08:42:00,
2013-02-02 02:48:00,48.5,43.9,30.18,South,183,12.0,14.0,84,0.00,,,0.00,Wunderground v.1.15,2013-02-02 08:48:00,
2013-02-02 02:54:00,48.6,44.3,30.18,SSE,160,12.0,12.0,85,0.00,,,0.00,Wunderground v.1.15,2013-02-02 08:54:00,
2013-02-02 03:00:00,48.7,44.4,30.18,SSE,148,11.0,11.0,85,0.00,,,0.00,Wunderground v.1.15,2013-02-02 09:00:00,
2013-02-02 03:06:00,48.8,44.5,30.18,SSE,158,11.0,12.0,85,0.00,,,0.00,Wunderground v.1.15,2013-02-02 09:06:00,
2013-02-02 03:12:00,48.8,44.5,30.18,South,177,11.0,11.0,85,0.00,,,0.00,Wunderground v.1.15,2013-02-02 09:12:00,
2013-02-02 03:18:00,48.9,44.6,30.18,South,181,10.0,12.0,85,0.00,,,0.00,Wunderground v.1.15,2013-02-02 09:18:00,
2013-02-02 03:24:00,48.9,44.9,30.18,SSE,155,9.0,13.0,86,0.00,,,0.00,Wunderground v.1.15,2013-02-02 09:24:00,
2013-02-02 03:30:00,48.9,44.9,30.18,South,177,9.0,9.0,86,0.00,,,0.00,Wunderground v.1.15,2013-02-02 09:30:00,
2013-02-02 03:36:00,48.9,44.9,30.18,SSW,193,9.0,11.0,86,0.00,,,0.00,Wunderground v.1.15,2013-02-02 09:36:00,
2013-02-02 03:42:00,48.9,44.9,30.18,South,172,9.0,12.0,86,0.00,,,0.00,Wunderground v.1.15,2013-02-02 09:42:00,
2013-02-02 03:48:00,48.8,44.8,30.18,SW,217,9.0,12.0,86,0.00,,,0.00,Wunderground v.1.15,2013-02-02 09:48:00,
2013-02-02 03:54:00,48.7,45.0,30.18,South,188,8.0,10.0,87,0.00,,,0.00,Wunderground v.1.15,2013-02-02 09:54:00,
2013-02-02 04:00:00,48.9,45.2,30.18,SSW,197,9.0,9.0,87,0.00,,,0.00,Wunderground v.1.15,2013-02-02 10:00:00,
2013-02-02 04:06:00,49.0,45.3,30.18,SSW,194,9.0,13.0,87,0.00,,,0.00,Wunderground v.1.15,2013-02-02 10:06:00,
2013-02-02 04:12:00,49.1,45.4,30.18,SSE,153,9.0,12.0,87,0.00,,,0.00,Wunderground v.1.15,2013-02-02 10:12:00,
2013-02-02 04:18:00,49.0,45.6,30.18,South,173,9.0,12.0,88,0.00,,,0.00,Wunderground v.1.15,2013-02-02 10:18:00,
2013-02-02 04:24:00,49.0,45.6,30.18,South,191,9.0,11.0,88,0.00,,,0.00,Wunderground v.1.15,2013-02-02 10:24:00,
2013-02-02 04:30:00,49.2,45.8,30.18,SSE,162,10.0,10.0,88,0.00,,,0.00,Wunderground v.1.15,2013-02-02 10:30:00,
2013-02-02 04:36:00,49.5,46.1,30.18,SSE,165,10.0,10.0,88,0.00,,,0.00,Wunderground v.1.15,2013-02-02 10:36:00,
2013-02-02 04:42:00,49.6,46.2,30.19,South,181,9.0,11.0,88,0.00,,,0.00,Wunderground v.1.15,2013-02-02 10:42:00,
2013-02-02 04:48:00,49.7,46.3,30.19,SSW,197,9.0,13.0,88,0.00,,,0.00,Wunderground v.1.15,2013-02-02 10:48:00,
2013-02-02 04:54:00,49.6,46.2,30.19,South,186,8.0,9.0,88,0.00,,,0.00,Wunderground v.1.15,2013-02-02 10:54:00,
2013-02-02 05:00:00,49.4,46.3,30.19,SSW,203,5.0,5.0,89,0.00,,,0.00,Wunderground v.1.15,2013-02-02 11:00:00,
2013-02-02 05:06:00,49.3,46.5,30.19,South,181,5.0,8.0,90,0.00,,,0.00,Wunderground v.1.15,2013-02-02 11:06:00,
2013-02-02 05:12:00,49.3,46.2,30.19,South,172,6.0,7.0,89,0.00,,,0.00,Wunderground v.1.15,2013-02-02 11:12:00,
2013-02-02 05:18:00,49.1,46.0,30.19,SSE,166,6.0,7.0,89,0.00,,,0.00,Wunderground v.1.15,2013-02-02 11:18:00,
2013-02-02 05:24:00,49.1,46.3,30.19,SSE,166,6.0,8.0,90,0.00,,,0.00,Wunderground v.1.15,2013-02-02 11:24:00,
2013-02-02 05:30:00,48.7,45.9,30.19,SSE,155,5.0,5.0,90,0.00,,,0.00,Wunderground v.1.15,2013-02-02 11:30:00,
2013-02-02 05:36:00,48.6,46.1,30.19,SSE,155,5.0,5.0,91,0.00,,,0.00,Wunderground v.1.15,2013-02-02 11:36:00,
2013-02-02 05:42:00,48.5,46.0,30.19,SSE,166,5.0,5.0,91,0.00,,,0.00,Wunderground v.1.15,2013-02-02 11:42:00,
2013-02-02 05:48:00,48.4,45.9,30.20,South,186,5.0,6.0,91,0.00,,,0.00,Wunderground v.1.15,2013-02-02 11:48:00,
2013-02-02 05:54:00,48.3,46.1,30.20,SSW,193,5.0,5.0,92,0.00,,,0.00,Wunderground v.1.15,2013-02-02 11:54:00,
2013-02-02 06:00:00,48.3,46.1,30.20,SSE,163,4.0,6.0,92,0.00,,,0.00,Wunderground v.1.15,2013-02-02 12:00:00,
2013-02-02 06:06:00,48.3,46.1,30.20,SE,141,5.0,6.0,92,0.00,,,0.00,Wunderground v.1.15,2013-02-02 12:06:00,
2013-02-02 06:12:00,48.3,46.1,30.20,SSE,166,4.0,5.0,92,0.00,,,0.00,Wunderground v.1.15,2013-02-02 12:12:00,
2013-02-02 06:18:00,48.2,46.0,30.20,WSW,239,5.0,5.0,92,0.00,,,0.00,Wunderground v.1.15,2013-02-02 12:18:00,
2013-02-02 06:24:00,48.6,46.4,30.20,SSE,168,6.0,7.0,92,0.00,,,0.00,Wunderground v.1.15,2013-02-02 12:24:00,
2013-02-02 06:30:00,48.8,46.6,30.20,SSW,201,7.0,7.0,92,0.00,,,0.00,Wunderground v.1.15,2013-02-02 12:30:00,
2013-02-02 06:36:00,48.9,46.7,30.21,South,176,6.0,7.0,92,0.00,,,0.00,Wunderground v.1.15,2013-02-02 12:36:00,
2013-02-02 06:42:00,48.9,46.7,30.21,South,179,5.0,6.0,92,0.00,,,0.00,Wunderground v.1.15,2013-02-02 12:42:00,
2013-02-02 06:48:00,48.8,46.6,30.21,South,174,5.0,6.0,92,0.00,,,0.00,Wunderground v.1.15,2013-02-02 12:48:00,
2013-02-02 06:54:00,48.8,46.9,30.21,South,177,5.0,6.0,93,0.00,,,0.00,Wunderground v.1.15,2013-02-02 12:54:00,
2013-02-02 07:00:00,48.7,46.8,30.21,South,172,5.0,5.0,93,0.00,,,0.00,Wunderground v.1.15,2013-02-02 13:00:00,
2013-02-02 07:06:00,48.5,46.6,30.21,SSE,150,4.0,7.0,93,0.00,,,0.00,Wunderground v.1.15,2013-02-02 13:06:00,
2013-02-02 07:12:00,48.6,46.7,30.22,SSE,150,5.0,7.0,93,0.00,,,0.00,Wunderground v.1.15,2013-02-02 13:12:00,
2013-02-02 07:18:00,48.5,46.6,30.22,SSW,197,5.0,7.0,93,0.00,,,0.00,Wunderground v.1.15,2013-02-02 13:18:00,
2013-02-02 07:24:00,48.7,46.8,30.22,South,170,6.0,7.0,93,0.00,,,0.00,Wunderground v.1.15,2013-02-02 13:24:00,
2013-02-02 07:30:00,48.8,46.9,30.22,South,176,6.0,7.0,93,0.00,,,0.00,Wunderground v.1.15,2013-02-02 13:30:00,
2013-02-02 07:36:00,48.9,46.7,30.22,SSW,194,6.0,8.0,92,0.00,,,0.00,Wunderground v.1.15,2013-02-02 13:36:00,
2013-02-02 07:42:00,49.1,47.2,30.22,South,188,7.0,9.0,93,0.00,,,0.00,Wunderground v.1.15,2013-02-02 13:42:00,
2013-02-02 07:48:00,49.5,47.3,30.22,SSE,158,7.0,10.0,92,0.00,,,0.00,Wunderground v.1.15,2013-02-02 13:48:00,
2013-02-02 07:54:00,49.8,47.6,30.23,SSW,207,7.0,8.0,92,0.00,,,0.00,Wunderground v.1.15,2013-02-02 13:54:00,
2013-02-02 08:00:00,50.2,47.7,30.23,South,169,7.0,7.0,91,0.00,,,0.00,Wunderground v.1.15,2013-02-02 14:00:00,
2013-02-02 08:06:00,50.8,48.3,30.23,SSW,194,7.0,7.0,91,0.00,,,0.00,Wunderground v.1.15,2013-02-02 14:06:00,
2013-02-02 08:12:00,51.4,48.6,30.23,SSW,194,8.0,8.0,90,0.00,,,0.00,Wunderground v.1.15,2013-02-02 14:12:00,
2013-02-02 08:18:00,52.1,49.3,30.23,South,179,7.0,8.0,90,0.00,,,0.00,Wunderground v.1.15,2013-02-02 14:18:00,
2013-02-02 08:24:00,52.7,49.5,30.23,SSE,160,6.0,8.0,89,0.00,,,0.00,Wunderground v.1.15,2013-02-02 14:24:00,
2013-02-02 08:30:00,53.5,50.0,30.24,SSE,160,8.0,9.0,88,0.00,,,0.00,Wunderground v.1.15,2013-02-02 14:30:00,
2013-02-02 08:36:00,54.3,50.5,30.24,South,174,8.0,9.0,87,0.00,,,0.00,Wunderground v.1.15,2013-02-02 14:36:00,
2013-02-02 08:42:00,55.0,50.9,30.24,SSE,158,8.0,13.0,86,0.00,,,0.00,Wunderground v.1.15,2013-02-02 14:42:00,
2013-02-02 08:48:00,55.4,51.0,30.24,SSW,207,9.0,13.0,85,0.00,,,0.00,Wunderground v.1.15,2013-02-02 14:48:00,
2013-02-02 08:54:00,55.7,50.9,30.24,South,180,9.0,11.0,84,0.00,,,0.00,Wunderground v.1.15,2013-02-02 14:54:00,
2013-02-02 09:00:00,56.3,51.2,30.24,South,179,8.0,12.0,83,0.00,,,0.00,Wunderground v.1.15,2013-02-02 15:00:00,
2013-02-02 09:06:00,56.7,51.6,30.24,South,170,9.0,12.0,83,0.00,,,0.00,Wunderground v.1.15,2013-02-02 15:06:00,
2013-02-02 09:12:00,57.3,51.9,30.24,South,187,9.0,10.0,82,0.00,,,0.00,Wunderground v.1.15,2013-02-02 15:12:00,
2013-02-02 09:18:00,57.7,51.9,30.25,SSE,167,9.0,14.0,81,0.00,,,0.00,Wunderground v.1.15,2013-02-02 15:18:00,
2013-02-02 09:24:00,58.4,52.6,30.25,SSE,162,9.0,9.0,81,0.00,,,0.00,Wunderground v.1.15,2013-02-02 15:24:00,
2013-02-02 09:30:00,59.0,52.8,30.25,South,177,9.0,10.0,80,0.00,,,0.00,Wunderground v.1.15,2013-02-02 15:30:00,
2013-02-02 09:36:00,59.4,52.9,30.25,SSW,198,9.0,19.0,79,0.00,,,0.00,Wunderground v.1.15,2013-02-02 15:36:00,
2013-02-02 09:42:00,59.9,53.0,30.25,South,189,10.0,13.0,78,0.00,,,0.00,Wunderground v.1.15,2013-02-02 15:42:00,
2013-02-02 09:48:00,60.1,53.2,30.25,SSE,163,11.0,16.0,78,0.00,,,0.00,Wunderground v.1.15,2013-02-02 15:48:00,
2013-02-02 09:54:00,61.1,53.5,30.25,SSE,160,9.0,10.0,76,0.00,,,0.00,Wunderground v.1.15,2013-02-02 15:54:00,
2013-02-02 10:00:00,61.8,53.8,30.25,SSW,210,7.0,12.0,75,0.00,,,0.00,Wunderground v.1.15,2013-02-02 16:00:00,
2013-02-02 10:06:00,61.4,53.4,30.25,South,186,10.0,16.0,75,0.00,,,0.00,Wunderground v.1.15,2013-02-02 16:06:00,
2013-02-02 10:12:00,61.6,53.6,30.25,South,171,11.0,12.0,75,0.00,,,0.00,Wunderground v.1.15,2013-02-02 16:12:00,
2013-02-02 10:18:00,61.8,53.8,30.26,ENE,77,10.0,13.0,75,0.00,,,0.00,Wunderground v.1.15,2013-02-02 16:18:00,
2013-02-02 10:24:00,62.1,53.7,30.26,SSW,201,11.0,16.0,74,0.00,,,0.00,Wunderground v.1.15,2013-02-02 16:24:00,
2013-02-02 10:30:00,62.2,53.8,30.26,SSE,166,10.0,12.0,74,0.00,,,0.00,Wunderground v.1.15,2013-02-02 16:30:00,
2013-02-02 10:36:00,62.6,54.2,30.25,SSE,160,9.0,14.0,74,0.00,,,0.00,Wunderground v.1.15,2013-02-02 16:36:00,
2013-02-02 10:42:00,62.6,53.8,30.25,SSW,198,10.0,10.0,73,0.00,,,0.00,Wunderground v.1.15,2013-02-02 16:42:00,
2013-02-02 10:48:00,63.4,54.2,30.26,South,173,8.0,10.0,72,0.00,,,0.00,Wunderground v.1.15,2013-02-02 16:48:00,
2013-02-02 10:54:00,63.6,54.0,30.25,SSW,195,7.0,9.0,71,0.00,,,0.00,Wunderground v.1.15,2013-02-02 16:54:00,
2013-02-02 11:00:00,64.0,54.4,30.26,SSE,148,7.0,10.0,71,0.00,,,0.00,Wunderground v.1.15,2013-02-02 17:00:00,
2013-02-02 11:06:00,63.7,54.1,30.26,South,191,8.0,13.0,71,0.00,,,0.00,Wunderground v.1.15,2013-02-02 17:06:00,
2013-02-02 11:12:00,63.7,53.7,30.26,SW,235,9.0,11.0,70,0.00,,,0.00,Wunderground v.1.15,2013-02-02 17:12:00,
2013-02-02 11:18:00,63.9,54.3,30.26,SSW,204,9.0,11.0,71,0.00,,,0.00,Wunderground v.1.15,2013-02-02 17:18:00,
2013-02-02 11:24:00,64.5,53.7,30.26,South,188,8.0,9.0,68,0.00,,,0.00,Wunderground v.1.15,2013-02-02 17:24:00,
2013-02-02 11:30:00,64.8,54.0,30.25,SSE,163,8.0,8.0,68,0.00,,,0.00,Wunderground v.1.15,2013-02-02 17:30:00,
2013-02-02 11:36:00,65.6,54.3,30.25,South,183,7.0,8.0,67,0.00,,,0.00,Wunderground v.1.15,2013-02-02 17:36:00,
2013-02-02 11:42:00,65.5,53.8,30.25,SSE,165,7.0,10.0,66,0.00,,,0.00,Wunderground v.1.15,2013-02-02 17:42:00,
2013-02-02 11:48:00,65.6,54.8,30.25,South,181,8.0,10.0,68,0.00,,,0.00,Wunderground v.1.15,2013-02-02 17:48:00,
2013-02-02 11:54:00,65.9,53.8,30.24,WSW,238,7.0,7.0,65,0.00,,,0.00,Wunderground v.1.15,2013-02-02 17:54:00,
2013-02-02 12:00:00,66.6,54.5,30.24,SSW,208,5.0,8.0,65,0.00,,,0.00,Wunderground v.1.15,2013-02-02 18:00:00,
2013-02-02 12:06:00,67.2,54.2,30.24,WSW,247,6.0,8.0,63,0.00,,,0.00,Wunderground v.1.15,2013-02-02 18:06:00,
2013-02-02 12:12:00,67.5,54.5,30.24,SSW,194,7.0,10.0,63,0.00,,,0.00,Wunderground v.1.15,2013-02-02 18:12:00,
2013-02-02 12:18:00,67.9,53.5,30.24,SW,230,7.0,10.0,60,0.00,,,0.00,Wunderground v.1.15,2013-02-02 18:18:00,
2013-02-02 12:24:00,67.6,52.8,30.23,SW,224,6.0,9.0,59,0.00,,,0.00,Wunderground v.1.15,2013-02-02 18:24:00,
2013-02-02 12:30:00,68.1,52.8,30.23,SSW,207,6.0,7.0,58,0.00,,,0.00,Wunderground v.1.15,2013-02-02 18:30:00,
2013-02-02 12:36:00,68.0,52.7,30.23,SE,135,6.0,10.0,58,0.00,,,0.00,Wunderground v.1.15,2013-02-02 18:36:00,
2013-02-02 12:42:00,68.2,51.9,30.23,South,183,5.0,7.0,56,0.00,,,0.00,Wunderground v.1.15,2013-02-02 18:42:00,
2013-02-02 12:48:00,68.6,51.8,30.23,WSW,248,6.0,9.0,55,0.00,,,0.00,Wunderground v.1.15,2013-02-02 18:48:00,
2013-02-02 12:54:00,68.7,50.9,30.23,SW,231,5.0,7.0,53,0.00,,,0.00,Wunderground v.1.15,2013-02-02 18:54:00,
2013-02-02 13:00:00,68.0,52.2,30.22,SSW,194,4.0,7.0,57,0.00,,,0.00,Wunderground v.1.15,2013-02-02 19:00:00,
2013-02-02 13:06:00,69.0,51.7,30.22,SW,222,4.0,7.0,54,0.00,,,0.00,Wunderground v.1.15,2013-02-02 19:06:00,
2013-02-02 13:12:00,69.2,51.8,30.22,SW,232,5.0,5.0,54,0.00,,,0.00,Wunderground v.1.15,2013-02-02 19:12:00,
2013-02-02 13:18:00,69.0,52.2,30.21,West,273,4.0,7.0,55,0.00,,,0.00,Wunderground v.1.15,2013-02-02 19:18:00,
2013-02-02 13:24:00,69.7,51.8,30.21,East,96,3.0,7.0,53,0.00,,,0.00,Wunderground v.1.15,2013-02-02 19:24:00,
2013-02-02 13:30:00,70.5,52.0,30.21,SSW,195,4.0,4.0,52,0.00,,,0.00,Wunderground v.1.15,2013-02-02 19:30:00,
2013-02-02 13:36:00,70.9,51.9,30.21,ESE,122,3.0,7.0,51,0.00,,,0.00,Wunderground v.1.15,2013-02-02 19:36:00,
2013-02-02 13:42:00,70.2,49.6,30.20,SW,223,2.0,5.0,48,0.00,,,0.00,Wunderground v.1.15,2013-02-02 19:42:00,
2013-02-02 13:48:00,70.4,50.9,30.20,NNW,346,2.0,7.0,50,0.00,,,0.00,Wunderground v.1.15,2013-02-02 19:48:00,
2013-02-02 13:54:00,70.4,50.3,30.20,NNW,338,2.0,7.0,49,0.00,,,0.00,Wunderground v.1.15,2013-02-02 19:54:00,
2013-02-02 14:00:00,70.6,50.5,30.20,NW,311,3.0,3.0,49,0.00,,,0.00,Wunderground v.1.15,2013-02-02 20:00:00,
2013-02-02 14:06:00,70.0,50.0,30.20,SW,217,2.0,7.0,49,0.00,,,0.00,Wunderground v.1.15,2013-02-02 20:06:00,
2013-02-02 14:12:00,70.3,50.2,30.19,North,360,1.0,2.0,49,0.00,,,0.00,Wunderground v.1.15,2013-02-02 20:12:00,
2013-02-02 14:18:00,70.4,49.2,30.19,ESE,104,1.0,7.0,47,0.00,,,0.00,Wunderground v.1.15,2013-02-02 20:18:00,
2013-02-02 14:24:00,70.9,49.7,30.19,WNW,300,1.0,7.0,47,0.00,,,0.00,Wunderground v.1.15,2013-02-02 20:24:00,
2013-02-02 14:30:00,71.0,50.3,30.19,NW,306,1.0,7.0,48,0.00,,,0.00,Wunderground v.1.15,2013-02-02 20:30:00,
2013-02-02 14:36:00,71.2,49.9,30.19,NNW,338,2.0,7.0,47,0.00,,,0.00,Wunderground v.1.15,2013-02-02 20:36:00,
2013-02-02 14:42:00,70.8,49.6,30.19,North,3,4.0,7.0,47,0.00,,,0.00,Wunderground v.1.15,2013-02-02 20:42:00,
2013-02-02 14:48:00,70.8,49.0,30.19,NNW,344,4.0,7.0,46,0.00,,,0.00,Wunderground v.1.15,2013-02-02 20:48:00,
2013-02-02 14:54:00,70.1,48.9,30.19,NE,36,3.0,7.0,47,0.00,,,0.00,Wunderground v.1.15,2013-02-02 20:54:00,
2013-02-02 15:00:00,69.8,49.8,30.19,NNE,29,1.0,7.0,49,0.00,,,0.00,Wunderground v.1.15,2013-02-02 21:00:00,
2013-02-02 15:06:00,70.7,49.5,30.19,ESE,120,2.0,7.0,47,0.00,,,0.00,Wunderground v.1.15,2013-02-02 21:06:00,
2013-02-02 15:12:00,71.4,49.5,30.19,NNE,29,1.0,2.0,46,0.00,,,0.00,Wunderground v.1.15,2013-02-02 21:12:00,
2013-02-02 15:18:00,70.0,49.4,30.19,North,359,1.0,7.0,48,0.00,,,0.00,Wunderground v.1.15,2013-02-02 21:18:00,
2013-02-02 15:24:00,69.3,49.9,30.19,North,354,2.0,7.0,50,0.00,,,0.00,Wunderground v.1.15,2013-02-02 21:24:00,
2013-02-02 15:30:00,69.0,49.0,30.19,NW,316,2.0,2.0,49,0.00,,,0.00,Wunderground v.1.15,2013-02-02 21:30:00,
2013-02-02 15:36:00,69.4,48.9,30.18,NNW,333,2.0,7.0,48,0.00,,,0.00,Wunderground v.1.15,2013-02-02 21:36:00,
2013-02-02 15:42:00,69.7,49.1,30.18,NNW,343,2.0,7.0,48,0.00,,,0.00,Wunderground v.1.15,2013-02-02 21:42:00,
2013-02-02 15:48:00,69.7,49.1,30.18,North,360,2.0,7.0,48,0.00,,,0.00,Wunderground v.1.15,2013-02-02 21:48:00,
2013-02-02 15:54:00,70.5,48.7,30.18,WNW,283,1.0,7.0,46,0.00,,,0.00,Wunderground v.1.15,2013-02-02 21:54:00,
2013-02-02 16:00:00,72.0,49.5,30.18,South,176,1.0,1.0,45,0.00,,,0.00,Wunderground v.1.15,2013-02-02 22:00:00,
2013-02-02 16:06:00,72.0,48.3,30.18,North,356,1.0,7.0,43,0.00,,,0.00,Wunderground v.1.15,2013-02-02 22:06:00,
2013-02-02 16:12:00,70.7,47.7,30.18,NW,309,2.0,7.0,44,0.00,,,0.00,Wunderground v.1.15,2013-02-02 22:12:00,
2013-02-02 16:18:00,69.8,48.1,30.18,North,351,1.0,7.0,46,0.00,,,0.00,Wunderground v.1.15,2013-02-02 22:18:00,
2013-02-02 16:24:00,69.4,47.7,30.18,NNE,33,1.0,7.0,46,0.00,,,0.00,Wunderground v.1.15,2013-02-02 22:24:00,
2013-02-02 16:30:00,69.2,47.5,30.18,NNE,33,0.0,7.0,46,0.00,,,0.00,Wunderground v.1.15,2013-02-02 22:30:00,
2013-02-02 16:36:00,69.5,48.4,30.18,NNE,33,0.0,7.0,47,0.00,,,0.00,Wunderground v.1.15,2013-02-02 22:36:00,
2013-02-02 16:42:00,69.9,47.6,30.18,South,176,0.0,7.0,45,0.00,,,0.00,Wunderground v.1.15,2013-02-02 22:42:00,
2013-02-02 16:48:00,70.7,48.3,30.18,South,179,0.0,7.0,45,0.00,,,0.00,Wunderground v.1.15,2013-02-02 22:48:00,
2013-02-02 16:54:00,71.4,48.3,30.18,SSW,197,2.0,7.0,44,0.00,,,0.00,Wunderground v.1.15,2013-02-02 22:54:00,
2013-02-02 17:00:00,71.4,47.7,30.18,SSW,207,3.0,3.0,43,0.00,,,0.00,Wunderground v.1.15,2013-02-02 23:00:00,
2013-02-02 17:06:00,71.4,48.3,30.18,SE,125,1.0,7.0,44,0.00,,,0.00,Wunderground v.1.15,2013-02-02 23:06:00,
2013-02-02 17:12:00,71.4,48.3,30.19,SE,136,0.0,7.0,44,0.00,,,0.00,Wunderground v.1.15,2013-02-02 23:12:00,
2013-02-02 17:18:00,71.1,48.7,30.19,East,99,0.0,7.0,45,0.00,,,0.00,Wunderground v.1.15,2013-02-02 23:18:00,
2013-02-02 17:24:00,70.5,48.7,30.19,East,97,0.0,7.0,46,0.00,,,0.00,Wunderground v.1.15,2013-02-02 23:24:00,
2013-02-02 17:30:00,69.9,48.7,30.19,ESE,117,0.0,7.0,47,0.00,,,0.00,Wunderground v.1.15,2013-02-02 23:30:00,
2013-02-02 17:36:00,69.0,49.0,30.19,SE,124,0.0,7.0,49,0.00,,,0.00,Wunderground v.1.15,2013-02-02 23:36:00,
2013-02-02 17:42:00,68.1,48.8,30.20,ESE,123,0.0,7.0,50,0.00,,,0.00,Wunderground v.1.15,2013-02-02 23:42:00,
2013-02-02 17:48:00,67.5,49.3,30.20,NNE,27,0.0,7.0,52,0.00,,,0.00,Wunderground v.1.15,2013-02-02 23:48:00,
2013-02-02 17:54:00,66.7,49.0,30.20,NNE,26,1.0,7.0,53,0.00,,,0.00,Wunderground v.1.15,2013-02-02 23:54:00,
2013-02-02 18:00:00,66.4,48.7,30.20,NNW,337,2.0,7.0,53,0.00,,,0.00,Wunderground v.1.15,2013-02-03 00:00:00,
2013-02-02 18:06:00,66.0,48.9,30.21,North,11,2.0,7.0,54,0.00,,,0.00,Wunderground v.1.15,2013-02-03 00:06:00,
2013-02-02 18:12:00,65.8,49.2,30.21,NNE,27,3.0,7.0,55,0.00,,,0.00,Wunderground v.1.15,2013-02-03 00:12:00,
2013-02-02 18:18:00,65.7,49.1,30.21,NE,53,3.0,7.0,55,0.00,,,0.00,Wunderground v.1.15,2013-02-03 00:18:00,
2013-02-02 18:24:00,65.5,49.4,30.22,NNE,33,3.0,7.0,56,0.00,,,0.00,Wunderground v.1.15,2013-02-03 00:24:00,
2013-02-02 18:30:00,65.2,49.1,30.22,North,7,4.0,4.0,56,0.00,,,0.00,Wunderground v.1.15,2013-02-03 00:30:00,
2013-02-02 18:36:00,64.7,49.1,30.22,North,11,4.0,7.0,57,0.00,,,0.00,Wunderground v.1.15,2013-02-03 00:36:00,
2013-02-02 18:42:00,64.4,48.8,30.23,North,9,4.0,7.0,57,0.00,,,0.00,Wunderground v.1.15,2013-02-03 00:42:00,
2013-02-02 18:48:00,64.0,48.9,30.23,North,7,4.0,7.0,58,0.00,,,0.00,Wunderground v.1.15,2013-02-03 00:48:00,
2013-02-02 18:54:00,63.6,48.5,30.23,NNE,15,4.0,8.0,58,0.00,,,0.00,Wunderground v.1.15,2013-02-03 00:54:00,
2013-02-02 19:00:00,63.2,48.2,30.23,NNE,22,4.0,7.0,58,0.00,,,0.00,Wunderground v.1.15,2013-02-03 01:00:00,
2013-02-02 19:06:00,62.8,48.3,30.24,NE,36,5.0,8.0,59,0.00,,,0.00,Wunderground v.1.15,2013-02-03 01:06:00,
2013-02-02 19:12:00,62.4,47.9,30.24,NE,39,5.0,7.0,59,0.00,,,0.00,Wunderground v.1.15,2013-02-03 01:12:00,
2013-02-02 19:18:00,62.2,47.7,30.24,NNE,18,5.0,7.0,59,0.00,,,0.00,Wunderground v.1.15,2013-02-03 01:18:00,
2013-02-02 19:24:00,61.9,47.4,30.24,NNE,30,6.0,7.0,59,0.00,,,0.00,Wunderground v.1.15,2013-02-03 01:24:00,
2013-02-02 19:30:00,61.5,47.0,30.25,NNE,26,5.0,5.0,59,0.00,,,0.00,Wunderground v.1.15,2013-02-03 01:30:00,
2013-02-02 19:36:00,61.1,47.1,30.25,NNE,12,4.0,7.0,60,0.00,,,0.00,Wunderground v.1.15,2013-02-03 01:36:00,
2013-02-02 19:42:00,60.7,47.2,30.25,NNE,13,3.0,7.0,61,0.00,,,0.00,Wunderground v.1.15,2013-02-03 01:42:00,
2013-02-02 19:48:00,60.5,47.0,30.26,NNE,26,4.0,8.0,61,0.00,,,0.00,Wunderground v.1.15,2013-02-03 01:48:00,
2013-02-02 19:54:00,60.2,47.1,30.26,North,5,4.0,7.0,62,0.00,,,0.00,Wunderground v.1.15,2013-02-03 01:54:00,
2013-02-02 20:00:00,59.9,46.8,30.26,NE,36,4.0,7.0,62,0.00,,,0.00,Wunderground v.1.15,2013-02-03 02:00:00,
2013-02-02 20:06:00,59.6,47.0,30.27,NNW,338,4.0,7.0,63,0.00,,,0.00,Wunderground v.1.15,2013-02-03 02:06:00,
2013-02-02 20:12:00,59.4,46.8,30.27,NNE,19,4.0,7.0,63,0.00,,,0.00,Wunderground v.1.15,2013-02-03 02:12:00,
2013-02-02 20:18:00,59.0,46.8,30.27,North,11,4.0,7.0,64,0.00,,,0.00,Wunderground v.1.15,2013-02-03 02:18:00,
2013-02-02 20:24:00,58.8,47.1,30.28,NNE,26,3.0,7.0,65,0.00,,,0.00,Wunderground v.1.15,2013-02-03 02:24:00,
2013-02-02 20:30:00,58.8,47.1,30.28,NNE,22,4.0,4.0,65,0.00,,,0.00,Wunderground v.1.15,2013-02-03 02:30:00,
2013-02-02 20:36:00,58.7,47.0,30.28,NNE,23,4.0,7.0,65,0.00,,,0.00,Wunderground v.1.15,2013-02-03 02:36:00,
2013-02-02 20:42:00,58.7,47.0,30.28,North,9,3.0,7.0,65,0.00,,,0.00,Wunderground v.1.15,2013-02-03 02:42:00,
2013-02-02 20:48:00,58.6,46.9,30.28,North,5,3.0,7.0,65,0.00,,,0.00,Wunderground v.1.15,2013-02-03 02:48:00,
2013-02-02 20:54:00,58.6,46.9,30.28,NNE,23,3.0,5.0,65,0.00,,,0.00,Wunderground v.1.15,2013-02-03 02:54:00,
2013-02-02 21:00:00,58.8,47.1,30.28,NNE,20,4.0,4.0,65,0.00,,,0.00,Wunderground v.1.15,2013-02-03 03:00:00,
2013-02-02 21:06:00,59.0,46.8,30.28,NNE,28,5.0,8.0,64,0.00,,,0.00,Wunderground v.1.15,2013-02-03 03:06:00,
2013-02-02 21:12:00,59.1,46.9,30.29,NNE,23,5.0,7.0,64,0.00,,,0.00,Wunderground v.1.15,2013-02-03 03:12:00,
2013-02-02 21:18:00,59.0,46.8,30.29,NNE,18,4.0,7.0,64,0.00,,,0.00,Wunderground v.1.15,2013-02-03 03:18:00,
2013-02-02 21:24:00,58.7,46.5,30.29,NNE,17,4.0,7.0,64,0.00,,,0.00,Wunderground v.1.15,2013-02-03 03:24:00,
2013-02-02 21:30:00,58.3,46.6,30.29,NNE,33,5.0,7.0,65,0.00,,,0.00,Wunderground v.1.15,2013-02-03 03:30:00,
2013-02-02 21:36:00,58.0,46.7,30.29,North,7,5.0,7.0,66,0.00,,,0.00,Wunderground v.1.15,2013-02-03 03:36:00,
2013-02-02 21:42:00,57.6,46.3,30.29,NNE,23,3.0,7.0,66,0.00,,,0.00,Wunderground v.1.15,2013-02-03 03:42:00,
2013-02-02 21:48:00,57.1,46.2,30.30,NNE,26,1.0,7.0,67,0.00,,,0.00,Wunderground v.1.15,2013-02-03 03:48:00,
2013-02-02 21:54:00,57.2,46.3,30.30,NNE,20,3.0,7.0,67,0.00,,,0.00,Wunderground v.1.15,2013-02-03 03:54:00,
2013-02-02 22:00:00,57.0,46.1,30.30,NNE,22,4.0,7.0,67,0.00,,,0.00,Wunderground v.1.15,2013-02-03 04:00:00,
2013-02-02 22:06:00,56.8,46.0,30.30,NNE,25,3.0,7.0,67,0.00,,,0.00,Wunderground v.1.15,2013-02-03 04:06:00,
2013-02-02 22:12:00,56.6,45.8,30.30,NNE,26,4.0,7.0,67,0.00,,,0.00,Wunderground v.1.15,2013-02-03 04:12:00,
2013-02-02 22:18:00,56.3,45.5,30.30,NNE,19,4.0,7.0,67,0.00,,,0.00,Wunderground v.1.15,2013-02-03 04:18:00,
2013-02-02 22:24:00,55.9,45.1,30.30,NNW,345,3.0,7.0,67,0.00,,,0.00,Wunderground v.1.15,2013-02-03 04:24:00,
2013-02-02 22:30:00,55.5,45.1,30.30,NNW,347,3.0,3.0,68,0.00,,,0.00,Wunderground v.1.15,2013-02-03 04:30:00,
2013-02-02 22:36:00,55.1,44.7,30.30,North,356,2.0,7.0,68,0.00,,,0.00,Wunderground v.1.15,2013-02-03 04:36:00,
2013-02-02 22:42:00,54.2,45.0,30.30,North,8,2.0,7.0,71,0.00,,,0.00,Wunderground v.1.15,2013-02-03 04:42:00,
2013-02-02 22:48:00,53.4,45.0,30.30,NNW,330,2.0,7.0,73,0.00,,,0.00,Wunderground v.1.15,2013-02-03 04:48:00,
2013-02-02 22:54:00,52.7,45.0,30.31,NNE,17,2.0,7.0,75,0.00,,,0.00,Wunderground v.1.15,2013-02-03 04:54:00,
2013-02-02 23:00:00,52.6,44.5,30.31,North,349,2.0,7.0,74,0.00,,,0.00,Wunderground v.1.15,2013-02-03 05:00:00,
2013-02-02 23:02:00,52.6,44.5,30.31,NNE,18,2.0,7.0,74,0.00,,,0.00,Wunderground v.1.15,2013-02-03 05:02:00,
2013-02-02 23:04:00,52.5,44.8,30.31,NNE,29,3.0,7.0,75,0.00,,,0.00,Wunderground v.1.15,2013-02-03 05:04:00,
2013-02-02 23:06:00,52.4,44.7,30.31,North,356,3.0,7.0,75,0.00,,,0.00,Wunderground v.1.15,2013-02-03 05:06:00,
2013-02-02 23:12:00,52.1,44.8,30.31,NNE,13,2.0,7.0,76,0.00,,,0.00,Wunderground v.1.15,2013-02-03 05:12:00,
2013-02-02 23:18:00,52.0,44.7,30.31,NNE,15,2.0,7.0,76,0.00,,,0.00,Wunderground v.1.15,2013-02-03 05:18:00,
2013-02-02 23:24:00,51.5,44.5,30.31,North,360,2.0,7.0,77,0.00,,,0.00,Wunderground v.1.15,2013-02-03 05:24:00,
2013-02-02 23:30:00,51.2,44.2,30.31,NNE,15,0.0,7.0,77,0.00,,,0.00,Wunderground v.1.15,2013-02-03 05:30:00,
2013-02-02 23:36:00,50.9,44.3,30.31,NNE,16,0.0,7.0,78,0.00,,,0.00,Wunderground v.1.15,2013-02-03 05:36:00,
2013-02-02 23:42:00,50.7,44.1,30.31,NNE,16,0.0,7.0,78,0.00,,,0.00,Wunderground v.1.15,2013-02-03 05:42:00,
2013-02-02 23:48:00,50.2,43.6,30.31,NNE,16,0.0,7.0,78,0.00,,,0.00,Wunderground v.1.15,2013-02-03 05:48:00,
2013-02-02 23:54:00,49.7,43.5,30.31,NNE,16,0.0,7.0,79,0.00,,,0.00,Wunderground v.1.15,2013-02-03 05:54:00,